Regional Weather Roundup
Issued by NWS

Home | Current Version | Previous Version | Graphics & Text | Print | Product List | Glossary On
Versions: 1 2 3 4 5 6 7 8 9 10 11 12 13 14 15 16 17 18 19 20 21 22 23 24 25 26 27 28 29 30 31 32 33 34 35 36 37 38 39 40 41 42 43 44 45 46 47 48 49 50
000
ASUS45 KCYS 141710
RWRWY

WYOMING REGIONAL WEATHER ROUNDUP
NATIONAL WEATHER SERVICE CHEYENNE WY
1000 AM MST SUN FEB 14 2016

NOTE:  "FAIR" INDICATES FEW OR NO CLOUDS BELOW 12,000 FEET
WITH NO SIGNIFICANT WEATHER AND/OR OBSTRUCTIONS TO VISIBILITY.

WYZ001-141800-
YELLOWSTONE NATIONAL PARK

CITY           SKY/WX    TMP DP  RH WIND       PRES   REMARKS
LK YELLOWSTONE   N/A     27  20  75 VRB7      30.00S WCI  19
W YELLOWSTONE  NOT AVBL

$$
WYZ002>013-054>058-071-098>099-141800-
NORTHERN WYOMING

CITY           SKY/WX    TMP DP  RH WIND       PRES   REMARKS
JACKSON        CLOUDY    34  27  75 SW18G25   30.03R WCI  23
CODY           FAIR      43  19  39 W13G20    29.88R
GREYBULL       PTSUNNY   34  24  67 E5        29.89R WCI  30
WORLAND        FAIR      37  22  54 CALM      29.89R
SHERIDAN       CLOUDY    35  25  66 S5        29.83S WCI  31
BUFFALO        CLOUDY    39  22  50 N6        29.83S WCI  35
GILLETTE       CLOUDY    34  28  79 W8        29.82S WCI  27
HULETT         LGT SNOW  32  30  93 SW10      29.81F WCI  24
NEWCASTLE      FAIR      30  25  80 CALM      29.84F

$$
WYZ014>020-022>026-101>103-141800-
CENTRAL WYOMING

CITY           SKY/WX    TMP DP  RH WIND       PRES   REMARKS
BIG PINEY      FAIR      27  21  78 CALM      30.08R
PINEDALE         N/A     30  27  86 MISG      30.08S
DUBOIS         CLOUDY    32  21  64 W24G37    29.94R WCI  19
LANDER         FAIR      36  19  50 VRB3      29.87F
RIVERTON       FAIR      36  19  50 S9        29.91F WCI  29
CASPER         FAIR      41  20  43 W23G30    29.87S
DOUGLAS        FAIR      43  21  41 NW26G37   29.85F

$$
WYZ021-027>030-104>119-141800-
SOUTHERN WYOMING

CITY           SKY/WX    TMP DP  RH WIND       PRES   REMARKS
EVANSTON       CLOUDY    30  27  88 SW17      30.17R WCI  18
FORT BRIDGER   PTSUNNY   34  32  93 W24G33    30.16S WCI  21
ROCK SPRINGS   PTSUNNY   32  25  75 W37G45    30.07R WCI  16
DIXON          CLOUDY    30  21  68 CALM      30.13S
RAWLINS        FAIR      31  22  69 W28G40    29.99S WCI  17
SARATOGA       PTSUNNY   32  23  69 SW22G35   30.02F WCI  19
LARAMIE        CLOUDY    35  20  54 W31G53    29.94S WCI  22
CHEYENNE       FAIR      43  20  39 W35G44    29.90R
TORRINGTON     FAIR      47  20  34 W22G28    29.84F
PINE BLUFFS    CLOUDY    39  23  52 SW9       29.88F WCI  33

$$



USA.gov is the U.S. government's official web portal to all federal, state and local government web resources and services.